Weather History for KPIA - July, 2014

Change the Weather History Date:

Friday, July 4, 2014

  Actual Average Record
Temperature  
Mean Temperature 68 °F 76 °F  
Max Temperature 79 °F 86 °F 106 °F (1936)
Min Temperature 56 °F 66 °F 49 °F (1940)
Degree Days  
Heating Degree Days 0 0  
Month to date heating degree days 0 0  
Since 1 June heating degree days 0 18  
Since 1 July heating degree days 0 0  
Cooling Degree Days 3 11  
Month to date cooling degree days 18 42  
Year to date cooling degree days 468 345  
Since 1 June cooling degree days 310 264  
Growing Degree Days 17 (Base 50)    
Moisture  
Dew Point 53 °F    
Average Humidity 65    
Maximum Humidity 93    
Minimum Humidity 36    
Precipitation  
Precipitation 0.00 in 0.12 in 1.46 in (1995)
Month to date precipitation 0.13 0.48  
Year to date precipitation 21.78 18.34  
Snow  
Snow 0.00 in 0.00 in 0.00 in ()
Month to date snowfall 0.0 0.0  
Since 1 June snowfall 0.0 0.0  
Since 1 July snowfall 0.0 0.0  
Snow Depth 0.00 in    
Sea Level Pressure  
Sea Level Pressure 30.28 in    
Wind  
Wind Speed 3 mph (ESE)    
Max Wind Speed 13 mph    
Max Gust Speed 15 mph    
Visibility 10 miles    
Events      
T = Trace of Precipitation, MM = Missing Value Source: NWS Daily Summary

Daily Weather History Graph

Daily Weather History Graph

Search for Another Location

Airport or City:

Trip Planner

Search our weather history database for the weather conditions in past years. The results will help you decide how hot, cold, wet, or windy it might be!

Date:

Astronomy

Jul. 04, 2014 Rise Set
Actual Time 5:33 AM CDT 8:33 PM CDT
Civil Twilight 5:00 AM CDT 9:06 PM CDT
Nautical Twilight 4:18 AM CDT 9:47 PM CDT
Astronomical Twilight 3:28 AM CDT 10:36 PM CDT
Moon 12:31 PM CDT (7/4) No Moon Set
Length of Visible Light 16h 06m
Length of Day
15h 00m
Waxing Crescent, 42% of the Moon is Illuminated
Jul 4
Waxing Crescent
Jul 5
First Quarter
Jul 12
Full
Jul 18
Last Quarter
Jul 26
New

Hourly Weather History & Observations

Time (CDT) Temp. Dew Point Humidity Pressure Visibility Wind Dir Wind Speed Gust Speed Precip Events Conditions
12:54 AM 60.1 °F 55.0 °F 83% 30.22 in 10.0 mi Calm Calm - N/A   Clear
1:54 AM 59.0 °F 54.0 °F 83% 30.23 in 10.0 mi Calm Calm - N/A   Scattered Clouds
2:54 AM 57.9 °F 53.1 °F 84% 30.25 in 10.0 mi Calm Calm - N/A   Clear
3:54 AM 57.0 °F 53.1 °F 87% 30.27 in 10.0 mi Calm Calm - N/A   Clear
4:54 AM 57.0 °F 53.1 °F 87% 30.27 in 10.0 mi Calm Calm - N/A   Clear
5:54 AM 55.9 °F 53.1 °F 90% 30.29 in 10.0 mi Calm Calm - N/A   Clear
6:54 AM 62.1 °F 55.9 °F 80% 30.30 in 10.0 mi Calm Calm - N/A   Clear
7:54 AM 68.0 °F 55.9 °F 65% 30.30 in 10.0 mi Calm Calm - N/A   Clear
8:54 AM 71.1 °F 54.0 °F 55% 30.32 in 10.0 mi Calm Calm - N/A   Clear
9:54 AM 75.0 °F 51.1 °F 43% 30.32 in 10.0 mi ENE 5.8 mph - N/A   Clear
10:54 AM 75.9 °F 48.9 °F 38% 30.32 in 10.0 mi ENE 6.9 mph - N/A   Mostly Cloudy
11:01 AM 75.9 °F 48.9 °F 38% 30.32 in 10.0 mi ENE 9.2 mph - N/A   Scattered Clouds
11:54 AM 77.0 °F 48.9 °F 37% 30.31 in 10.0 mi Variable 3.5 mph - N/A   Scattered Clouds
12:54 PM 77.0 °F 48.9 °F 37% 30.31 in 10.0 mi East 8.1 mph - N/A   Partly Cloudy
1:54 PM 78.1 °F 50.0 °F 37% 30.30 in 10.0 mi Variable 6.9 mph - N/A   Partly Cloudy
2:54 PM 78.1 °F 51.1 °F 39% 30.29 in 10.0 mi SE 9.2 mph - N/A   Scattered Clouds
3:54 PM 78.1 °F 52.0 °F 40% 30.28 in 10.0 mi South 5.8 mph - N/A   Scattered Clouds
4:54 PM 78.1 °F 50.0 °F 37% 30.27 in 10.0 mi South 8.1 mph - N/A   Clear
5:54 PM 78.1 °F 51.1 °F 39% 30.27 in 10.0 mi Variable 3.5 mph - N/A   Mostly Cloudy
6:54 PM 77.0 °F 51.1 °F 40% 30.26 in 10.0 mi SE 4.6 mph - N/A   Scattered Clouds
7:54 PM 73.0 °F 53.1 °F 49% 30.26 in 10.0 mi South 5.8 mph - N/A   Clear
8:54 PM 69.1 °F 54.0 °F 58% 30.26 in 10.0 mi Calm Calm - N/A   Clear
9:54 PM 64.9 °F 55.0 °F 70% 30.27 in 10.0 mi Calm Calm - N/A   Clear
10:54 PM 64.0 °F 55.0 °F 73% 30.27 in 10.0 mi Calm Calm - N/A   Clear
11:54 PM 63.0 °F 55.0 °F 75% 30.26 in 8.0 mi East 3.5 mph - N/A   Clear